Flag for Canada Weather past 2 weeks in Kenora, Ontario, Canada

Now
19 °F

Ice fog.


Feels Like: 8 °F
Forecast: 17 / 31 °F
Wind: 10 mph from South

Location: Kenora

Current Time: Jan 27, 2015 at 9:09:43 AM

Latest Report: Jan 27, 2015 at 8:00 AM


Visibility: 0 mi

Pressure: 30.11 "Hg

Humidity: 93%

Dew point: 18 °F

Location of KenoraLocation

Historic Weather in Kenora — Graph

°F

Kenora temperature yesterday

Maximum temperature yesterday: 23 °F (at 6:00 AM)
Minimum temperature yesterday: 16 °F (at 12:00 AM)
Average temperature yesterday: 21 °F

Past Weeks' High & Low Weather Summary

 TemperatureHumidityPressure
High36 °F (Jan 23, 6:00 AM)100% (Jan 14, 11:00 PM)30.86 "Hg (Jan 14, 11:00 PM)
Low-20 °F (Jan 12, 8:00 AM)54% (Jan 12, 3:00 PM)29.37 "Hg (Jan 17, 8:00 AM)
Average13 °F82%30.00 "Hg
* Reported Jan 12 8:00 AM — Jan 27 8:00 AM, Kenora, Weather by CustomWeather, © 2014

Note: Actual official high and low records may vary slightly from our data, if they occured in-between our weather recording intervals... More about our weather records

Advertising

Kenora weather history for previous 24 hours

 ConditionsComfort  
Time TempWeatherWind HumidityBarometerVisibility
8:00 AM
Jan 27
19 °FIce fog.10 mph93%30.11 "Hg0 mi
7:00 AM19 °FIce fog.9 mph93%30.10 "Hg0 mi
6:00 AM19 °FIce fog.9 mph100%30.09 "Hg0 mi
5:00 AM19 °FIce fog.8 mph93%30.09 "Hg0 mi
4:00 AM19 °FIce fog.6 mph100%30.09 "Hg0 mi
3:00 AM19 °FLight snow. Ice fog.5 mph100%30.09 "Hg1 mi
2:00 AM21 °FLight snow. Ice fog.8 mph93%30.08 "Hg1 mi
1:00 AM21 °FLight snow. Ice fog.5 mph93%30.06 "Hg3 mi
12:00 AM19 °FLight snow. Ice fog.2 mph100%30.05 "Hg1 mi
11:00 PM
Jan 26
19 °FLight snow. Ice fog.2 mph100%30.04 "Hg1 mi
10:00 PM19 °FLight snow. Ice fog.No wind100%30.03 "Hg1 mi
9:00 PM19 °FLight snow. Ice fog.2 mph100%30.01 "Hg3 mi
8:00 PM19 °FLight snow. Low clouds.2 mph93%30.00 "Hg10 mi
7:00 PM19 °FLight snow. Low clouds.5 mph93%29.99 "Hg12 mi
6:00 PM19 °FLight snow. Low clouds.9 mph93%29.97 "Hg12 mi
5:00 PM19 °FLight snow. Low clouds.9 mph93%29.95 "Hg12 mi
4:00 PM21 °FLight snow. Low clouds.10 mph93%29.91 "Hg12 mi
3:00 PM23 °FLight snow. Low clouds.9 mph86%29.87 "Hg12 mi
2:00 PM23 °FLight snow. Low clouds.10 mph86%29.84 "Hg12 mi
1:00 PM23 °FLight snow. Mostly cloudy.14 mph86%29.83 "Hg12 mi
12:00 PM23 °FLight snow. Mostly cloudy.12 mph93%29.79 "Hg12 mi
11:00 AM23 °FLight snow. More clouds than sun.10 mph93%29.75 "Hg12 mi
10:00 AM23 °FLight snow. Low clouds.12 mph93%29.69 "Hg10 mi
9:00 AM23 °FLight snow. Mostly cloudy.8 mph93%29.65 "Hg8 mi
Weather by CustomWeather, © 2014

See weather overviewHow to use our weather pages